This is the latest recevied weather packets stored in our database for station/object KI2K. If no packets are shown the sender has not sent any weather packets the latest 10 day(s).
| Time | Temp. | Humidity | Pressure | Rain* | Wind** | Luminosity | Snow |
|---|---|---|---|---|---|---|---|
| 1777759908 | 11.67° C | 45% | 1017.1 hPa | 0 mm | - | 99 W/m² | - |
| 1777759604 | 12.22° C | 43% | 1017.5 hPa | 0 mm | - | 291 W/m² | - |
| 1777759300 | 12.22° C | 44% | 1017 hPa | 0 mm | - | 316 W/m² | - |
| 1777758997 | 12.78° C | 45% | 1017.1 hPa | 0 mm | - | 346 W/m² | - |
| 1777758694 | 12.22° C | 50% | 1017.1 hPa | 0 mm | - | 245 W/m² | - |
| 1777758391 | 11.11° C | 46% | 1017.2 hPa | 0 mm | - | 389 W/m² | - |
| 1777758088 | 10.56° C | 45% | 1017.2 hPa | 0 mm | - | 90 W/m² | - |
| 1777757786 | 11.11° C | 47% | 1017.1 hPa | 0 mm | - | 89 W/m² | - |
| 1777757483 | 12.22° C | 45% | 1017.3 hPa | 0 mm | - | 82 W/m² | - |
| 1777757182 | 12.22° C | 44% | 1016.9 hPa | 0 mm | - | 443 W/m² | - |
| 1777756880 | 12.22° C | 44% | 1017.2 hPa | 0 mm | - | 124 W/m² | - |
| 1777756580 | 12.22° C | 46% | 1017.2 hPa | 0 mm | - | 144 W/m² | - |
| 1777756272 | 13.89° C | 42% | 1016.9 hPa | 0 mm | - | 170 W/m² | - |
| 1777755970 | 13.89° C | 43% | 1017.1 hPa | 0 mm | - | 490 W/m² | - |
| 1777755666 | 12.78° C | 44% | 1017.1 hPa | 0 mm | - | 516 W/m² | - |
| 1777755363 | 12.22° C | 45% | 1016.9 hPa | 0 mm | - | 549 W/m² | - |
| 1777755060 | 12.22° C | 46% | 1017.1 hPa | 0 mm | - | 562 W/m² | - |
| 1777754756 | 11.67° C | 47% | 1017.2 hPa | 0 mm | - | 157 W/m² | - |
| 1777754454 | 11.67° C | 46% | 1017 hPa | 0 mm | - | 219 W/m² | - |
| 1777754151 | 12.22° C | 44% | 1017.1 hPa | 0 mm | - | 124 W/m² | - |
| 1777753849 | 13.89° C | 43% | 1017.2 hPa | 0 mm | - | 174 W/m² | - |
| 1777753544 | 13.33° C | 45% | 1017.2 hPa | 0 mm | - | 645 W/m² | - |
| 1777753243 | 12.22° C | 43% | 1017.1 hPa | 0 mm | - | 652 W/m² | - |
| 1777752938 | 12.22° C | 46% | 1017.4 hPa | 0 mm | - | 227 W/m² | - |
| 1777752635 | 12.78° C | 42% | 1017.3 hPa | 0 mm | - | 742 W/m² | - |
* Rain latest hour (hover to see other rain measurements)
** Current wind speed in m/s (hover to see current wind gust speed)